• In Österreich
  • Länderverzeichnis
  • Für 7 Tage
  • Wassertemperatur
  • Satellitenkarten
  • Wetterkarte
  • News
  • Widgets
  • user-avatar
    Anmelden

    Stündliche Wetter Diapaga

    Heute, 25 Juni, Montag

    Zeit Temperatur Niederschläge Wind Luftdruck Luftfeuchtigkeit
    00:00 +28°C° 0 mm 2 m/S 736 mmHg 71%
    01:00 +28°C° 0 mm 2 m/S 736 mmHg 73%
    02:00 +28°C° 0 mm 2 m/S 735 mmHg 74%
    03:00 +27°C° 0 mm 2 m/S 735 mmHg 75%
    04:00 +27°C° 0 mm 2 m/S 735 mmHg 76%
    05:00 +27°C° 0 mm 2 m/S 735 mmHg 76%
    06:00 +27°C° 0 mm 2 m/S 736 mmHg 75%
    07:00 +28°C° 0 mm 2 m/S 736 mmHg 69%
    08:00 +30°C° 0 mm 2 m/S 736 mmHg 63%
    09:00 +31°C° 0 mm 3 m/S 736 mmHg 57%
    10:00 +34°C° 0 mm 2 m/S 736 mmHg 51%
    11:00 +36°C° 0 mm 2 m/S 736 mmHg 44%
    12:00 +37°C° 0 mm 1 m/S 736 mmHg 38%
    13:00 +37°C° 0 mm 1 m/S 735 mmHg 36%
    14:00 +39°C° 0 mm 1 m/S 735 mmHg 34%
    15:00 +39°C° 0 mm 2 m/S 734 mmHg 32%
    16:00 +39°C° 0 mm 2 m/S 734 mmHg 33%
    17:00 +38°C° 0 mm 2 m/S 734 mmHg 35%
    18:00 +37°C° 0 mm 2 m/S 734 mmHg 36%
    19:00 +36°C° 0 mm 2 m/S 734 mmHg 40%
    20:00 +35°C° 0 mm 2 m/S 735 mmHg 43%
    21:00 +34°C° 0 mm 3 m/S 735 mmHg 46%
    22:00 +33°C° 0 mm 3 m/S 735 mmHg 49%
    23:00 +33°C° 0 mm 3 m/S 735 mmHg 52%

    Morgen, 26 Juni, Dienstag

    Zeit Temperatur Niederschläge Wind Luftdruck Luftfeuchtigkeit
    00:00 +31°C° 0 mm 3 m/S 735 mmHg 55%
    01:00 +31°C° 0 mm 3 m/S 735 mmHg 56%
    02:00 +30°C° 0 mm 3 m/S 734 mmHg 58%
    03:00 +30°C° 0 mm 3 m/S 734 mmHg 59%
    04:00 +30°C° 0 mm 3 m/S 734 mmHg 61%
    05:00 +29°C° 0 mm 3 m/S 734 mmHg 62%
    06:00 +29°C° 0 mm 3 m/S 734 mmHg 64%
    07:00 +31°C° 0 mm 3 m/S 735 mmHg 59%
    08:00 +33°C° 0 mm 3 m/S 735 mmHg 55%
    09:00 +34°C° 0 mm 4 m/S 736 mmHg 51%
    10:00 +36°C° 0 mm 3 m/S 736 mmHg 45%
    11:00 +38°C° 0 mm 3 m/S 735 mmHg 40%
    12:00 +40°C° 0 mm 2 m/S 735 mmHg 34%
    13:00 +40°C° 0 mm 2 m/S 734 mmHg 33%
    14:00 +40°C° 0 mm 2 m/S 733 mmHg 31%
    15:00 +41°C° 0 mm 2 m/S 732 mmHg 29%
    16:00 +40°C° 0 mm 1 m/S 732 mmHg 30%
    17:00 +39°C° 0 mm 1 m/S 732 mmHg 32%
    18:00 +39°C° 0 mm 1 m/S 733 mmHg 33%
    19:00 +37°C° 0,3 mm 2 m/S 733 mmHg 38%
    20:00 +36°C° 0,3 mm 2 m/S 733 mmHg 43%
    21:00 +35°C° 0,3 mm 3 m/S 733 mmHg 48%
    22:00 +34°C° 0 mm 3 m/S 733 mmHg 52%
    23:00 +33°C° 0 mm 3 m/S 733 mmHg 57%

    übermorgen, 27 Juni, Mittwoch

    Zeit Temperatur Niederschläge Wind Luftdruck Luftfeuchtigkeit
    00:00 +32°C° 0 mm 4 m/S 734 mmHg 61%
    01:00 +31°C° 0,9 mm 3 m/S 733 mmHg 65%
    02:00 +30°C° 0,9 mm 3 m/S 733 mmHg 69%
    03:00 +29°C° 0,9 mm 3 m/S 733 mmHg 74%
    04:00 +29°C° 2,4 mm 4 m/S 734 mmHg 76%
    05:00 +28°C° 2,4 mm 5 m/S 735 mmHg 79%
    06:00 +27°C° 2,4 mm 5 m/S 735 mmHg 82%
    07:00 +28°C° 0,2 mm 5 m/S 736 mmHg 81%
    08:00 +28°C° 0,2 mm 5 m/S 736 mmHg 79%
    09:00 +28°C° 0,2 mm 5 m/S 736 mmHg 78%
    10:00 +29°C° 0 mm 5 m/S 736 mmHg 73%
    11:00 +32°C° 0 mm 5 m/S 735 mmHg 67%
    12:00 +33°C° 0 mm 5 m/S 735 mmHg 62%
    13:00 +34°C° 0 mm 5 m/S 735 mmHg 59%
    14:00 +34°C° 0 mm 5 m/S 734 mmHg 57%
    15:00 +34°C° 0 mm 5 m/S 733 mmHg 54%
    16:00 +34°C° 0 mm 4 m/S 734 mmHg 56%
    17:00 +33°C° 0 mm 4 m/S 734 mmHg 58%
    18:00 +33°C° 0 mm 3 m/S 734 mmHg 60%
    19:00 +31°C° 0 mm 3 m/S 734 mmHg 63%
    20:00 +30°C° 0 mm 3 m/S 735 mmHg 66%
    21:00 +30°C° 0 mm 2 m/S 736 mmHg 69%
    22:00 +29°C° 0 mm 2 m/S 736 mmHg 71%
    23:00 +29°C° 0 mm 2 m/S 735 mmHg 72%

    28 Juni, Donnerstag

    Zeit Temperatur Niederschläge Wind Luftdruck Luftfeuchtigkeit
    00:00 +29°C° 0 mm 3 m/S 735 mmHg 74%
    01:00 +28°C° 0 mm 3 m/S 735 mmHg 75%
    02:00 +28°C° 0 mm 3 m/S 735 mmHg 75%
    03:00 +28°C° 0 mm 3 m/S 734 mmHg 76%
    04:00 +28°C° 0 mm 3 m/S 735 mmHg 76%
    05:00 +28°C° 0 mm 4 m/S 735 mmHg 75%
    06:00 +28°C° 0 mm 4 m/S 735 mmHg 75%
    07:00 +29°C° 0 mm 4 m/S 736 mmHg 71%
    08:00 +30°C° 0 mm 5 m/S 736 mmHg 68%
    09:00 +30°C° 0 mm 5 m/S 737 mmHg 64%
    10:00 +33°C° 0 mm 5 m/S 737 mmHg 59%
    11:00 +34°C° 0 mm 5 m/S 736 mmHg 53%
    12:00 +36°C° 0 mm 4 m/S 736 mmHg 48%
    13:00 +36°C° 0 mm 4 m/S 735 mmHg 46%
    14:00 +37°C° 0 mm 4 m/S 735 mmHg 44%
    15:00 +37°C° 0 mm 4 m/S 734 mmHg 42%
    16:00 +36°C° 0 mm 4 m/S 734 mmHg 44%
    17:00 +36°C° 0 mm 4 m/S 734 mmHg 47%
    18:00 +35°C° 0 mm 4 m/S 734 mmHg 49%
    19:00 +34°C° 0 mm 4 m/S 734 mmHg 53%
    20:00 +33°C° 0 mm 4 m/S 735 mmHg 56%
    21:00 +32°C° 0 mm 4 m/S 735 mmHg 59%
    22:00 +32°C° 0 mm 4 m/S 735 mmHg 61%
    23:00 +30°C° 0 mm 4 m/S 735 mmHg 63%

    29 Juni, Freitag

    Zeit Temperatur Niederschläge Wind Luftdruck Luftfeuchtigkeit
    00:00 +29°C° 0 mm 4 m/S 736 mmHg 65%
    01:00 +29°C° 0 mm 4 m/S 735 mmHg 66%
    02:00 +29°C° 0 mm 4 m/S 734 mmHg 67%
    03:00 +29°C° 0 mm 4 m/S 734 mmHg 68%
    04:00 +28°C° 0,3 mm 4 m/S 734 mmHg 69%
    05:00 +28°C° 0,3 mm 4 m/S 734 mmHg 70%
    06:00 +28°C° 0,3 mm 4 m/S 735 mmHg 72%
    07:00 +29°C° 0,2 mm 4 m/S 735 mmHg 68%
    08:00 +29°C° 0,2 mm 4 m/S 735 mmHg 65%
    09:00 +30°C° 0,2 mm 4 m/S 736 mmHg 62%
    10:00 +33°C° 0 mm 4 m/S 735 mmHg 56%
    11:00 +34°C° 0 mm 3 m/S 735 mmHg 50%
    12:00 +36°C° 0 mm 3 m/S 735 mmHg 45%
    13:00 +37°C° 0 mm 3 m/S 734 mmHg 42%
    14:00 +37°C° 0 mm 2 m/S 733 mmHg 39%
    15:00 +38°C° 0 mm 2 m/S 733 mmHg 35%
    16:00 +37°C° 0 mm 2 m/S 733 mmHg 38%
    17:00 +36°C° 0 mm 2 m/S 733 mmHg 40%
    18:00 +36°C° 0 mm 2 m/S 733 mmHg 42%
    19:00 +34°C° 0,4 mm 3 m/S 734 mmHg 49%
    20:00 +33°C° 0,4 mm 3 m/S 734 mmHg 55%
    21:00 +30°C° 0,4 mm 4 m/S 734 mmHg 62%
    22:00 +29°C° 0,6 mm 4 m/S 734 mmHg 66%
    23:00 +28°C° 0,6 mm 4 m/S 734 mmHg 71%

    30 Juni, Samstag

    Zeit Temperatur Niederschläge Wind Luftdruck Luftfeuchtigkeit
    00:00 +28°C° 0,6 mm 3 m/S 734 mmHg 75%
    01:00 +27°C° 0,6 mm 3 m/S 734 mmHg 75%
    02:00 +27°C° 0,6 mm 3 m/S 734 mmHg 75%
    03:00 +27°C° 0,6 mm 2 m/S 733 mmHg 75%
    04:00 +27°C° 0,4 mm 3 m/S 734 mmHg 75%
    05:00 +27°C° 0,4 mm 3 m/S 734 mmHg 75%
    06:00 +27°C° 0,4 mm 4 m/S 734 mmHg 75%
    07:00 +27°C° 0 mm 4 m/S 735 mmHg 72%
    08:00 +28°C° 0 mm 4 m/S 735 mmHg 70%
    09:00 +29°C° 0 mm 5 m/S 735 mmHg 67%
    10:00 +32°C° 0 mm 5 m/S 735 mmHg 61%
    11:00 +34°C° 0 mm 4 m/S 735 mmHg 54%
    12:00 +35°C° 0 mm 4 m/S 734 mmHg 48%
    13:00 +36°C° 0 mm 4 m/S 734 mmHg 45%
    14:00 +37°C° 0 mm 3 m/S 733 mmHg 43%
    15:00 +37°C° 0 mm 3 m/S 732 mmHg 40%
    16:00 +37°C° 0 mm 3 m/S 732 mmHg 42%
    17:00 +36°C° 0 mm 3 m/S 733 mmHg 44%
    18:00 +35°C° 0 mm 2 m/S 733 mmHg 46%
    19:00 +35°C° 0 mm 3 m/S 733 mmHg 49%
    20:00 +34°C° 0 mm 3 m/S 734 mmHg 52%
    21:00 +33°C° 0 mm 3 m/S 734 mmHg 55%
    22:00 +32°C° 0 mm 4 m/S 734 mmHg 58%
    23:00 +32°C° 0 mm 4 m/S 734 mmHg 61%
    Mehr zeigen